FW1340 Weather Reports


Display with metric or nautical units.
time (UTC)temp
F
wind
direction
speed
MPH
gust
MPH
rain 1hr
in
rain 24hr
in
rain mn
in
humidity
%
barometer
mb
20260902033028 65 271 0.0 0.0 0.00 0.00 0.00 65 1015.8
20260902031537 66 249 0.0 0.0 0.00 0.00 0.00 64 1015.5
20260902030027 66 277 0.0 0.0 0.00 0.00 0.00 64 1015.3
20260902024527 67 302 0.0 0.0 0.00 0.00 0.00 62 1015.1
20260902023026 68 277 0.0 0.0 0.00 0.00 0.00 60 1015.0
20260902021537 69 242 0.0 0.0 0.00 0.00 0.00 58 1014.8
20260902020033 70 277 0.0 0.0 0.00 0.00 0.00 55 1014.7
20260902014543 71 259 0.0 0.0 0.00 0.00 0.00 52 1014.6
20260902013024 72 288 0.0 0.0 0.00 0.00 0.00 51 1014.5
20260902011524 73 276 0.0 0.0 0.00 0.00 0.00 49 1014.4
20260902010027 74 252 0.0 0.0 0.00 0.00 0.00 48 1014.3
20260902004525 75 270 0.0 0.0 0.00 0.00 0.00 47 1014.2
20260902003024 76 252 0.0 0.0 0.00 0.00 0.00 47 1014.1
20260902001523 76 250 0.0 0.0 0.00 0.00 0.00 46 1014.2
20260902000033 77 244 0.0 0.0 0.00 0.00 0.00 44 1014.2
20260901234536 78 237 0.0 0.0 0.00 0.00 0.00 43 1014.2
20260901233019 77 267 0.0 0.0 0.00 0.00 0.00 44 1014.4
20260901231519 78 250 0.0 0.0 0.00 0.00 0.00 43 1014.5
20260901230018 78 284 0.0 0.0 0.00 0.00 0.00 43 1014.5
20260901224517 78 259 0.0 0.0 0.00 0.00 0.00 43 1014.7
20260901223015 77 255 0.0 0.0 0.00 0.00 0.00 45 1014.8
20260901221535 76 272 0.0 0.0 0.00 0.00 0.00 46 1015.0
20260901220014 77 279 0.0 0.0 0.00 0.00 0.00 46 1015.1
20260901214510 76 83 0.0 0.0 0.00 0.00 0.00 46 1015.2
20260901213006 75 268 0.0 0.0 0.00 0.00 0.00 50 1015.1
20260901211505 74 234 0.0 0.0 0.00 0.00 0.00 51 1015.2
20260901210007 74 261 0.0 0.0 0.00 0.00 0.00 51 1015.3
20260901204503 74 280 0.0 0.0 0.00 0.00 0.00 51 1015.3
20260901203003 74 180 0.0 0.0 0.00 0.00 0.00 49 1015.5
20260901201501 73 289 0.0 0.0 0.00 0.00 0.00 50 1015.7
20260901200001 74 265 0.0 0.0 0.00 0.00 0.00 51 1015.7
20260901194600 74 243 0.0 0.0 0.00 0.00 0.00 50 1015.8
20260901193108 74 275 0.0 0.0 0.00 0.00 0.00 52 1015.9
20260901191552 72 290 0.0 0.0 0.00 0.00 0.00 55 1016.1
20260901190050 72 238 0.0 0.0 0.00 0.00 0.00 54 1016.2
20260901184555 71 252 0.0 0.0 0.00 0.00 0.00 55 1016.3
20260901183046 71 259 0.0 0.0 0.00 0.00 0.00 56 1016.4
20260901181546 71 290 0.0 0.0 0.00 0.00 0.00 55 1016.4
20260901180043 70 259 0.0 0.0 0.00 0.00 0.00 57 1016.4
20260901174543 71 254 0.0 0.0 0.00 0.00 0.00 57 1016.3
20260901173040 71 304 0.0 0.0 0.00 0.00 0.00 56 1016.3
20260901171538 70 232 0.0 0.0 0.00 0.00 0.00 58 1016.1
20260901170032 69 253 0.0 0.0 0.00 0.00 0.00 62 1016.2
20260901164529 68 265 0.0 0.0 0.00 0.00 0.00 63 1016.1
20260901163026 67 259 0.0 0.0 0.00 0.00 0.00 65 1016.0
20260901161535 66 252 0.0 0.0 0.00 0.00 0.00 67 1016.0
20260901160033 65 236 0.0 0.0 0.00 0.00 0.00 69 1015.9
20260901154513 63 194 0.0 0.0 0.00 0.00 0.00 72 1015.8
20260901153007 61 164 0.0 0.0 0.00 0.00 0.00 75 1015.7
20260901151503 60 147 0.0 0.0 0.00 0.00 0.00 80 1015.5
20260901150002 58 133 0.0 0.0 0.00 0.00 0.00 84 1015.4
20260901144600 56 124 0.0 0.0 0.00 0.00 0.00 88 1015.3
20260901143058 54 148 0.0 0.0 0.00 0.00 0.00 91 1015.2
20260901141554 52 144 0.0 0.0 0.00 0.00 0.00 92 1014.9
20260901140048 51 139 0.0 0.0 0.00 0.00 0.00 91 1014.6
20260901134601 51 115 0.0 0.0 0.00 0.00 0.00 90 1014.4
20260901133045 50 125 0.0 0.0 0.00 0.00 0.00 90 1014.3
20260901131542 51 123 0.0 0.0 0.00 0.00 0.00 89 1014.3
20260901130040 51 127 0.0 0.0 0.00 0.00 0.00 89 1014.1
20260901124550 51 136 0.0 0.0 0.00 0.00 0.00 88 1013.9
20260901123038 51 132 0.0 0.0 0.00 0.00 0.00 88 1013.9
20260901121536 52 146 0.0 0.0 0.00 0.00 0.00 89 1013.9
20260901120049 51 159 0.0 0.0 0.00 0.00 0.00 87 1013.9
20260901114539 52 191 0.0 0.0 0.00 0.00 0.00 87 1013.9
20260901113053 52 126 0.0 0.0 0.00 0.00 0.00 86 1013.6
20260901111529 52 161 0.0 0.0 0.00 0.00 0.00 85 1013.5
20260901110027 53 177 0.0 0.0 0.00 0.00 0.00 85 1013.6
20260901104528 53 163 0.0 0.0 0.00 0.00 0.00 85 1013.5
20260901103022 54 161 0.0 0.0 0.00 0.00 0.00 84 1013.4
20260901101524 54 142 0.0 0.0 0.00 0.00 0.00 83 1013.3
20260901100016 55 168 0.0 0.0 0.00 0.00 0.00 83 1013.5
20260901094516 55 184 0.0 0.0 0.00 0.00 0.00 82 1013.5
20260901093019 56 157 0.0 0.0 0.00 0.00 0.00 82 1013.4
20260901091512 56 199 0.0 0.0 0.00 0.00 0.00 82 1013.4
20260901090014 56 209 0.0 0.0 0.00 0.00 0.00 82 1013.5
20260901084524 57 198 0.0 0.0 0.00 0.00 0.00 81 1013.5
20260901083008 57 198 0.0 0.0 0.00 0.00 0.00 81 1013.5
20260901081505 57 218 0.0 0.0 0.00 0.00 0.00 81 1013.6
20260901080004 57 214 0.0 0.0 0.00 0.00 0.00 80 1013.7
20260901074501 58 215 0.0 0.0 0.00 0.00 0.00 80 1013.5
20260901073103 58 212 0.0 0.0 0.00 0.00 0.00 80 1013.4
20260901071555 59 216 0.0 0.0 0.00 0.00 0.00 79 1013.4
20260901070100 59 241 0.0 0.0 0.00 0.00 0.00 78 1013.4
20260901064553 60 246 0.0 0.0 0.00 0.00 0.00 78 1013.4
20260901063051 60 258 0.0 0.0 0.00 0.00 0.00 77 1013.4
20260901061552 60 252 0.0 0.0 0.00 0.00 0.00 78 1013.4
20260901060051 60 228 0.0 0.0 0.00 0.00 0.00 78 1013.4
20260901054550 60 256 0.0 0.0 0.00 0.00 0.00 78 1013.3
20260901053105 60 272 0.0 0.0 0.00 0.00 0.00 77 1013.1
20260901051549 60 286 0.0 0.0 0.00 0.00 0.00 77 1013.1
20260901050048 60 294 0.0 0.0 0.00 0.00 0.00 77 1013.0
20260901044614 61 273 0.0 0.0 0.00 0.00 0.00 76 1013.0
20260901043046 61 248 0.0 0.0 0.00 0.00 0.00 76 1012.9
20260901041546 61 286 0.0 0.0 0.00 0.00 0.00 76 1012.8
20260901040045 61 236 0.0 0.0 0.00 0.00 0.00 76 1012.5
20260901034552 62 269 0.0 0.0 0.00 0.00 0.00 76 1012.3